This is the latest recevied weather packets stored in our database for station/object KF7SOJ. If no packets are shown the sender has not sent any weather packets the latest 10 day(s).
| Time | Temp. | Humidity | Pressure | Rain* | Wind** | Luminosity | Snow |
|---|---|---|---|---|---|---|---|
| 1788159404 | 16.11° C | 40% | 930.8 hPa | 0 mm | - | 0 W/m² | - |
| 1788159103 | 16.67° C | 38% | 930.8 hPa | 0 mm | - | 0 W/m² | - |
| 1788158798 | 16.67° C | 38% | 930.7 hPa | 0 mm | - | 0 W/m² | - |
| 1788158493 | 16.11° C | 38% | 930.8 hPa | 0 mm | - | 0 W/m² | - |
| 1788158189 | 16.11° C | 41% | 930.7 hPa | 0 mm | - | 0 W/m² | - |
| 1788157885 | 16.11° C | 39% | 930.7 hPa | 0 mm | - | 0 W/m² | - |
| 1788157585 | 16.11° C | 41% | 930.7 hPa | 0 mm | - | 0 W/m² | - |
| 1788157284 | 15.56° C | 42% | 930.7 hPa | 0 mm | - | 0 W/m² | - |
| 1788156982 | 15.56° C | 43% | 930.6 hPa | 0 mm | - | 0 W/m² | - |
| 1788156679 | 15.56° C | 44% | 930.4 hPa | 0 mm | - | 0 W/m² | - |
| 1788156375 | 16.11° C | 43% | 930.6 hPa | 0 mm | - | 0 W/m² | - |
| 1788156069 | 16.11° C | 43% | 930.7 hPa | 0 mm | - | 0 W/m² | - |
| 1788155768 | 15.56° C | 44% | 930.4 hPa | 0 mm | - | 0 W/m² | - |
| 1788155464 | 15° C | 47% | 930.4 hPa | 0 mm | - | 0 W/m² | - |
| 1788155164 | 15° C | 47% | 930.3 hPa | 0 mm | - | 0 W/m² | - |
| 1788154863 | 15° C | 47% | 930.3 hPa | 0 mm | - | 0 W/m² | - |
| 1788154562 | 15.56° C | 46% | 930.3 hPa | 0 mm | - | 0 W/m² | - |
| 1788154257 | 16.11° C | 45% | 930.5 hPa | 0 mm | - | 0 W/m² | - |
| 1788153956 | 16.67° C | 44% | 930.4 hPa | 0 mm | - | 0 W/m² | - |
| 1788153656 | 17.22° C | 41% | 930.5 hPa | 0 mm | - | 0 W/m² | - |
| 1788153353 | 17.78° C | 38% | 930.2 hPa | 0 mm | - | 0 W/m² | - |
| 1788153056 | 17.78° C | 38% | 930.2 hPa | 0 mm | - | 0 W/m² | - |
| 1788152747 | 17.78° C | 39% | 930.2 hPa | 0 mm | - | 0 W/m² | - |
| 1788152445 | 17.78° C | 39% | 930.2 hPa | 0 mm | - | 0 W/m² | - |
| 1788152145 | 17.78° C | 39% | 930.3 hPa | 0 mm | - | 0 W/m² | - |
* Rain latest hour (hover to see other rain measurements)
** Current wind speed in m/s (hover to see current wind gust speed)